Total_Precipitation_Accumulation
0.16 0.05 0.00 0.00 0.00 0.00 0.00 0.00 0.00 0.00 0.00 0.00 0.00 0.00 0.00 0.00 0.00 0.00 0.00 0.00 0.00 0.00 0.00 0.00 0.00 0.00 0.01 0.00 0.00 0.00 0.00 0.00 0.00 0.00 0.00 0.01 0.00 0.00 0.00 0.01 0.00 0.00 0.01 0.04 0.03 0.01 0.04 0.00 0.00 0.05 0.04 0.04 0.03 0.01 0.02 0.03 0.03 0.04 0.03 0.02 0.03 0.02 0.03 0.05 0.06 0.01 0.00 0.00 0.01 0.00 0.01 0.01 0.01 0.00 0.01 0.01 0.00 0.01 0.00 0.00 0.00 0.01 0.00 0.00 0.02
0.40 0.43 0.11 0.01 0.00 0.00 0.00 0.00 0.00 0.00 0.00 0.00 0.00 0.00 0.00 0.01 0.00 0.00 0.00 0.00 0.00 0.00 0.00 0.00 0.00 0.00 0.00 0.00 0.01 0.03 0.00 0.00 0.00 0.01 0.01 0.00 0.00 0.00 0.00 0.00 0.01 0.00 0.00 0.00 0.00 0.01 0.04 0.00 0.00 0.00 0.03 0.03 0.03 0.03 0.03 0.02 0.01 0.01 0.03 0.02 0.01 0.02 0.02 0.04 0.04 0.02 0.00 0.01 0.01 0.01 0.01 0.01 0.01 0.00 0.01 0.02 0.01 0.00 0.01 0.00 0.00 0.00 0.00 0.00 0.01
0.41 0.20 0.22 0.06 0.00 0.02 0.00 0.00 0.01 0.00 0.00 0.00 0.00 0.01 0.01 0.02 0.00 0.00 0.00 0.00 0.01 0.00 0.00 0.00 0.00 0.00 0.00 0.02 0.01 0.00 0.01 0.01 0.00 0.00 0.00 0.00 0.00 0.00 0.00 0.00 0.00 0.00 0.00 0.00 0.00 0.00 0.00 0.00 0.00 0.01 0.01 0.02 0.01 0.01 0.01 0.00 0.01 0.01 0.01 0.01 0.01 0.01 0.02 0.03 0.05 0.05 0.02 0.00 0.00 0.01 0.01 0.02 0.02 0.02 0.01 0.01 0.00 0.01 0.00 0.01 0.01 0.01 0.00 0.01 0.01
0.69 0.72 0.87 0.83 0.16 0.08 0.01 0.01 0.00 0.00 0.00 0.00 0.00 0.02 0.01 0.00 0.00 0.02 0.01 0.00 0.02 0.00 0.00 0.00 0.00 0.00 0.00 0.01 0.00 0.00 0.00 0.00 0.00 0.00 0.00 0.00 0.00 0.00 0.00 0.00 0.00 0.00 0.00 0.00 0.00 0.00 0.00 0.00 0.00 0.00 0.00 0.00 0.01 0.01 0.01 0.00 0.01 0.01 0.01 0.01 0.02 0.00 0.01 0.05 0.02 0.07 0.04 0.06 0.01 0.01 0.01 0.03 0.02 0.01 0.01 0.00 0.00 0.00 0.01 0.01 0.01 0.01 0.02 0.02 0.02
1.37 0.69 0.68 0.52 0.56 0.14 0.02 0.01 0.04 0.04 0.01 0.00 0.01 0.03 0.03 0.00 0.01 0.03 0.01 0.03 0.01 0.01 0.00 0.02 0.01 0.02 0.03 0.01 0.00 0.00 0.00 0.00 0.01 0.00 0.00 0.00 0.00 0.00 0.00 0.00 0.00 0.00 0.00 0.00 0.00 0.00 0.00 0.00 0.00 0.00 0.00 0.01 0.01 0.01 0.00 0.01 0.01 0.02 0.02 0.04 0.04 0.02 0.02 0.02 0.01 0.02 0.07 0.13 0.04 0.02 0.03 0.02 0.02 0.01 0.01 0.02 0.02 0.02 0.01 0.01 0.02 0.02 0.01 0.02 0.01
0.43 0.19 0.83 0.76 0.71 0.52 0.17 0.13 0.20 0.10 0.03 0.03 0.09 0.03 0.01 0.01 0.01 0.03 0.01 0.01 0.00 0.01 0.00 0.00 0.00 0.00 0.00 0.00 0.00 0.02 0.00 0.00 0.00 0.00 0.00 0.00 0.00 0.00 0.00 0.00 0.00 0.00 0.00 0.00 0.00 0.00 0.00 0.00 0.01 0.01 0.01 0.01 0.01 0.00 0.00 0.00 0.00 0.01 0.02 0.04 0.02 0.05 0.06 0.02 0.03 0.07 0.10 0.07 0.09 0.08 0.03 0.03 0.05 0.01 0.01 0.01 0.03 0.02 0.02 0.01 0.01 0.02 0.02 0.02 0.02
0.97 0.85 0.81 0.68 0.36 0.26 0.25 0.63 0.44 0.12 0.08 0.08 0.16 0.15 0.09 0.02 0.02 0.02 0.01 0.02 0.01 0.01 0.00 0.00 0.00 0.00 0.00 0.00 0.01 0.00 0.00 0.00 0.00 0.00 0.00 0.00 0.00 0.00 0.01 0.00 0.00 0.00 0.00 0.00 0.00 0.00 0.01 0.03 0.03 0.02 0.02 0.01 0.01 0.00 0.00 0.00 0.01 0.01 0.02 0.01 0.01 0.02 0.04 0.06 0.04 0.06 0.06 0.06 0.07 0.06 0.03 0.02 0.04 0.05 0.02 0.01 0.02 0.02 0.02 0.03 0.04 0.04 0.02 0.03 0.02
0.44 0.60 0.37 0.45 0.26 0.31 0.24 0.49 0.60 0.37 0.18 0.26 0.17 0.16 0.10 0.04 0.00 0.02 0.02 0.01 0.01 0.01 0.01 0.01 0.01 0.01 0.00 0.00 0.00 0.00 0.00 0.00 0.01 0.01 0.00 0.00 0.00 0.00 0.00 0.00 0.00 0.00 0.01 0.01 0.02 0.02 0.04 0.03 0.02 0.02 0.02 0.02 0.03 0.01 0.00 0.01 0.01 0.01 0.01 0.04 0.03 0.04 0.04 0.04 0.07 0.06 0.05 0.04 0.06 0.07 0.05 0.03 0.02 0.02 0.03 0.03 0.03 0.02 0.03 0.08 0.11 0.04 0.02 0.02 0.02
0.15 0.13 0.42 0.43 0.43 0.57 0.83 0.98 1.07 1.07 1.21 1.32 1.17 0.45 0.11 0.04 0.01 0.01 0.01 0.02 0.04 0.03 0.04 0.03 0.00 0.00 0.02 0.04 0.01 0.01 0.02 0.02 0.01 0.03 0.01 0.00 0.00 0.00 0.00 0.03 0.00 0.01 0.02 0.03 0.03 0.03 0.03 0.01 0.01 0.01 0.00 0.01 0.03 0.01 0.02 0.00 0.03 0.01 0.00 0.01 0.01 0.02 0.05 0.04 0.06 0.06 0.06 0.07 0.06 0.05 0.08 0.03 0.02 0.02 0.03 0.04 0.04 0.07 0.18 0.07 0.06 0.03 0.03 0.04 0.03
0.15 0.17 0.40 0.36 0.49 0.63 0.70 1.21 0.99 1.36 1.28 2.27 2.21 1.22 0.21 0.09 0.04 0.06 0.10 0.08 0.05 0.02 0.01 0.01 0.01 0.01 0.01 0.02 0.02 0.03 0.03 0.02 0.10 0.06 0.01 0.02 0.02 0.02 0.03 0.03 0.04 0.05 0.05 0.05 0.04 0.03 0.03 0.01 0.04 0.03 0.02 0.03 0.03 0.03 0.03 0.01 0.01 0.00 0.00 0.01 0.02 0.02 0.03 0.07 0.07 0.07 0.09 0.09 0.15 0.05 0.07 0.06 0.04 0.04 0.04 0.06 0.07 0.08 0.06 0.05 0.09 0.06 0.04 0.09 0.06
0.29 0.10 0.14 0.32 0.45 0.52 0.68 1.03 0.91 1.42 1.62 2.60 1.85 1.52 0.40 0.22 0.17 0.03 0.04 0.03 0.03 0.02 0.02 0.02 0.04 0.04 0.04 0.05 0.04 0.04 0.02 0.02 0.02 0.02 0.02 0.03 0.06 0.10 0.06 0.05 0.06 0.05 0.04 0.06 0.06 0.09 0.03 0.10 0.17 0.06 0.04 0.05 0.17 0.16 0.07 0.16 0.08 0.09 0.09 0.08 0.08 0.06 0.05 0.04 0.03 0.03 0.08 0.05 0.06 0.06 0.06 0.07 0.02 0.03 0.04 0.03 0.06 0.08 0.11 0.06 0.11 0.17 0.18 0.18 0.28
0.42 0.22 0.25 0.26 0.44 0.47 0.26 1.29 1.37 1.03 1.94 3.73 3.22 1.63 0.72 0.25 0.05 0.07 0.05 0.03 0.08 0.08 0.04 0.05 0.05 0.06 0.06 0.05 0.05 0.12 0.13 0.05 0.04 0.06 0.07 0.12 0.07 0.05 0.07 0.05 0.04 0.03 0.07 0.10 0.12 0.14 0.26 0.08 0.05 0.21 0.06 0.10 0.25 0.42 0.26 0.12 0.11 0.12 0.11 0.09 0.06 0.04 0.03 0.05 0.09 0.12 0.03 0.04 0.05 0.03 0.05 0.08 0.06 0.04 0.05 0.09 0.29 0.59 0.42 0.35 0.46 0.47 0.38 0.34 0.25
0.21 0.23 0.33 0.31 0.57 0.50 1.24 1.43 1.11 0.87 1.47 3.23 2.30 1.57 1.26 0.82 0.34 0.23 0.10 0.11 0.21 0.10 0.08 0.08 0.07 0.10 0.13 0.15 0.18 0.13 0.08 0.11 0.09 0.11 0.10 0.08 0.06 0.07 0.04 0.05 0.06 0.07 0.22 0.31 0.32 0.35 0.30 0.17 0.43 0.24 0.25 0.44 0.56 0.21 0.20 0.23 0.19 0.13 0.14 0.14 0.11 0.10 0.09 0.07 0.06 0.05 0.08 0.08 0.14 0.07 0.05 0.06 0.10 0.12 0.18 0.59 0.91 1.33 1.20 1.39 0.57 0.48 0.44 0.48 0.35
0.69 0.45 0.69 1.00 1.34 1.39 1.23 0.97 0.67 1.57 2.60 2.81 1.94 1.66 1.36 0.99 1.26 0.70 0.38 0.23 0.11 0.20 0.08 0.14 0.16 0.18 0.21 0.16 0.15 0.18 0.19 0.17 0.12 0.08 0.06 0.07 0.08 0.03 0.07 0.05 0.05 0.14 0.14 0.09 0.15 0.12 0.11 0.51 0.53 0.43 0.53 0.38 0.49 0.17 0.20 0.33 0.31 0.41 0.38 0.27 0.20 0.15 0.10 0.07 0.05 0.03 0.11 0.55 0.13 0.09 0.05 0.04 0.10 0.16 0.23 0.47 0.66 1.24 1.85 1.80 0.69 0.26 0.41 0.42 0.23
1.05 1.01 0.82 1.01 0.97 1.01 0.90 1.04 1.29 2.89 2.94 2.44 1.70 1.55 1.46 0.99 0.57 0.62 0.83 0.52 0.22 0.13 0.16 0.22 0.20 0.33 0.27 0.20 0.29 0.37 0.20 0.11 0.12 0.12 0.11 0.12 0.10 0.09 0.11 0.21 0.11 0.07 0.13 0.17 0.09 0.11 0.21 0.27 0.48 0.48 0.38 0.33 0.43 0.27 0.32 0.47 0.43 0.20 0.17 0.11 0.15 0.12 0.14 0.08 0.09 0.14 0.10 0.11 0.18 0.09 0.12 0.06 0.06 0.05 0.17 0.17 0.26 0.58 2.34 1.60 0.66 0.67 0.89 0.57 0.50
0.69 0.77 0.76 1.09 1.07 1.00 1.03 1.29 1.85 2.53 2.35 2.09 1.58 1.12 0.81 1.07 1.14 0.76 0.80 0.72 0.47 0.45 0.54 0.34 0.34 0.33 0.31 0.24 0.20 0.12 0.09 0.09 0.46 0.45 0.08 0.02 0.06 0.25 0.17 0.08 0.11 0.07 0.07 0.11 0.12 0.25 0.28 0.33 0.44 0.40 0.24 0.49 0.26 0.13 0.13 0.14 0.19 0.24 0.09 0.10 0.07 0.08 0.06 0.03 0.02 0.02 0.05 0.05 0.06 0.02 0.01 0.02 0.00 0.05 0.11 0.13 0.49 1.82 3.16 1.68 1.21 1.15 1.79 0.89 0.32
1.82 1.55 2.13 1.46 0.85 1.17 1.62 1.84 1.82 1.90 2.05 1.48 1.55 1.63 1.54 1.15 0.96 0.96 0.61 0.90 1.33 0.77 0.52 0.45 0.51 0.36 0.19 0.17 0.09 0.09 0.10 0.08 0.05 0.11 0.50 0.10 0.04 0.11 0.11 0.08 0.16 0.11 0.09 0.11 0.34 0.26 0.17 0.14 0.15 0.30 0.26 0.19 0.14 0.08 0.08 0.06 0.07 0.11 0.11 0.05 0.03 0.03 0.01 0.04 0.02 0.01 0.02 0.01 0.02 0.00 0.00 0.00 0.00 0.01 0.04 0.05 0.27 1.29 3.58 2.01 1.20 2.26 2.43 1.11 0.15
1.19 1.21 1.56 1.21 0.93 1.08 1.09 0.96 1.03 1.33 1.57 1.70 1.38 1.20 1.28 1.09 1.08 1.12 1.30 1.51 1.02 0.80 0.89 0.46 0.36 0.26 0.39 0.15 0.23 0.10 0.13 0.04 0.02 0.03 0.06 0.12 0.13 0.17 0.14 0.14 0.17 0.22 0.26 0.35 0.35 0.31 0.21 0.18 0.17 0.31 0.32 0.32 0.13 0.08 0.08 0.07 0.03 0.03 0.04 0.10 0.12 0.03 0.02 0.01 0.02 0.02 0.01 0.00 0.00 0.00 0.00 0.00 0.68 0.66 0.44 0.06 0.42 1.27 3.37 1.48 1.40 2.39 3.28 2.46 0.76
0.74 1.22 1.37 0.90 1.28 1.29 1.18 0.94 0.79 0.91 1.23 1.29 1.25 1.32 1.35 1.28 1.12 1.37 1.05 0.88 0.80 0.73 0.66 0.79 0.58 0.68 0.55 0.47 0.15 0.15 0.18 0.08 0.06 0.06 0.07 0.08 0.13 0.22 0.18 0.19 0.22 0.20 0.43 0.37 0.20 0.20 0.46 0.17 0.18 0.25 0.21 0.17 0.14 0.11 0.10 0.08 0.08 0.06 0.03 0.02 0.02 0.02 0.02 0.02 0.01 0.00 0.01 0.02 0.01 0.05 0.14 0.93 1.46 1.45 1.28 0.36 1.55 2.07 2.45 1.87 1.55 2.53 2.99 2.17 1.89
0.68 0.55 0.77 1.31 1.13 1.83 1.19 0.84 0.90 0.88 1.29 1.44 1.76 1.93 2.03 2.00 1.64 1.19 0.86 0.77 0.89 0.87 0.64 0.50 0.32 0.40 0.36 0.42 0.20 0.14 0.14 0.12 0.08 0.08 0.16 0.14 0.52 0.76 0.32 0.31 0.22 0.25 0.38 0.27 0.18 0.30 0.34 0.47 0.14 0.11 0.13 0.11 0.10 0.07 0.05 0.03 0.02 0.01 0.02 0.02 0.04 0.02 0.01 0.01 0.01 0.02 0.01 0.01 0.02 0.17 0.31 0.70 1.07 0.95 0.59 0.60 0.63 0.87 0.76 0.35 0.34 0.81 1.31 1.74 2.01
1.13 1.51 1.35 0.83 0.93 2.03 1.48 1.00 1.26 1.45 1.48 1.77 1.84 1.81 1.98 1.80 1.38 1.17 0.95 1.04 1.17 0.92 0.65 0.58 0.44 0.53 0.51 0.80 0.63 0.37 0.36 0.47 0.39 0.28 0.32 0.38 0.63 0.85 1.35 0.49 0.44 0.36 0.43 0.20 0.22 0.30 0.29 0.31 0.35 0.21 0.08 0.03 0.04 0.03 0.02 0.01 0.00 0.01 0.02 0.02 0.01 0.01 0.04 0.00 0.00 0.01 0.02 0.03 0.03 0.02 0.05 0.21 0.27 0.25 0.35 0.20 0.08 0.09 0.11 0.09 0.09 0.19 0.68 0.79 1.19
0.55 0.23 1.02 1.87 2.11 2.67 1.99 2.11 1.21 1.03 1.03 1.08 0.84 0.73 1.32 1.55 1.12 0.93 1.06 0.63 0.56 0.47 0.50 0.80 0.87 0.85 0.58 0.43 0.31 0.43 0.32 0.14 0.33 0.32 0.52 0.75 0.77 0.81 0.98 0.82 0.36 0.28 0.17 0.18 0.20 0.18 0.32 0.27 0.17 0.08 0.08 0.02 0.02 0.01 0.01 0.01 0.01 0.02 0.02 0.01 0.01 0.01 0.01 0.01 0.02 0.03 0.02 0.02 0.04 0.03 0.03 0.05 0.06 0.22 0.27 0.26 0.08 0.11 0.09 0.32 0.23 0.14 0.12 0.19 0.61
0.16 0.12 0.73 1.00 1.89 2.33 1.94 1.38 0.91 0.58 0.49 0.48 0.31 0.48 0.74 0.67 0.63 0.34 0.34 0.50 0.67 0.78 0.74 0.54 0.46 0.56 0.48 0.24 0.14 0.12 0.28 0.26 0.28 0.85 0.79 0.65 0.73 0.64 0.46 0.60 0.51 0.54 0.41 0.23 0.27 0.12 0.18 0.13 0.05 0.02 0.01 0.01 0.01 0.01 0.01 0.01 0.01 0.03 0.01 0.01 0.01 0.01 0.02 0.03 0.03 0.05 0.02 0.02 0.03 0.05 0.04 0.04 0.10 0.29 0.99 0.66 0.14 0.10 0.10 0.14 0.20 0.19 0.17 0.14 0.41
0.66 0.65 0.40 0.61 0.69 1.37 1.39 1.12 1.17 1.34 0.94 0.65 0.65 0.74 0.82 0.73 0.46 0.74 0.40 0.55 0.50 0.64 0.97 0.83 0.71 0.26 0.26 0.32 0.26 0.30 0.48 0.55 0.68 1.20 0.94 0.62 0.84 0.75 0.73 0.69 0.65 0.37 0.14 0.10 0.11 0.23 0.10 0.08 0.03 0.02 0.01 0.02 0.02 0.02 0.01 0.01 0.01 0.01 0.02 0.01 0.01 0.03 0.08 0.05 0.06 0.08 0.09 0.06 0.08 0.08 0.06 0.09 0.20 0.53 1.14 0.86 0.15 0.13 0.15 0.20 0.25 0.25 0.26 0.32 0.85
0.12 0.10 0.17 0.25 0.31 0.73 0.61 0.76 0.98 1.05 0.97 1.09 1.43 1.21 1.17 1.06 0.57 0.50 0.55 0.57 0.55 0.57 0.53 0.80 0.74 0.64 0.68 1.14 0.77 0.55 0.99 1.02 0.98 0.75 0.79 0.67 0.73 0.77 0.44 0.19 0.05 0.04 0.05 0.06 0.07 0.12 0.06 0.04 0.03 0.02 0.02 0.03 0.03 0.03 0.03 0.02 0.05 0.02 0.02 0.02 0.01 0.31 0.07 0.08 0.16 0.30 0.32 0.13 0.08 0.08 0.08 0.08 0.20 0.55 1.02 0.77 0.21 0.19 0.21 0.19 0.21 0.27 0.35 0.83 1.17
0.23 0.44 0.52 0.47 0.42 0.20 0.19 0.38 0.38 0.44 0.58 0.50 0.49 0.49 0.55 0.55 0.76 0.46 0.65 0.87 0.96 1.19 1.24 1.50 1.06 0.81 0.77 0.94 0.73 0.70 0.73 0.86 1.24 1.17 1.20 1.07 0.50 0.21 0.05 0.03 0.02 0.07 0.03 0.05 0.03 0.02 0.02 0.03 0.03 0.04 0.04 0.02 0.03 0.02 0.03 0.06 0.03 0.03 0.03 0.15 0.90 0.50 0.74 0.50 0.11 0.14 0.10 0.07 0.06 0.05 0.03 0.09 0.10 0.82 1.45 0.89 0.21 0.15 0.26 0.36 0.34 0.48 1.00 1.12 1.24
0.59 0.40 0.12 0.16 0.20 0.25 0.16 0.17 0.11 0.09 0.20 0.37 0.85 1.01 1.30 1.07 0.97 1.08 0.77 0.87 0.70 0.60 0.55 0.64 0.72 0.44 0.46 0.45 0.61 0.66 0.97 1.38 0.96 1.34 1.37 0.67 0.36 0.32 0.24 0.31 0.29 0.14 0.07 0.06 0.08 0.06 0.07 0.07 0.11 0.11 0.13 0.13 0.11 0.10 0.07 0.07 0.09 0.12 0.35 0.19 0.13 0.20 0.09 0.07 0.05 0.08 0.05 0.05 0.05 0.05 0.05 0.12 0.53 0.99 1.43 0.60 0.33 0.40 0.39 0.36 0.34 0.79 1.04 1.21 0.71
0.38 0.39 0.42 0.42 0.15 0.40 0.38 0.32 0.48 0.55 0.78 0.79 0.79 0.66 0.61 0.59 0.66 0.45 0.45 0.36 0.31 0.24 0.19 0.15 0.16 0.17 0.24 0.45 0.68 0.84 1.14 1.26 1.77 1.40 1.60 0.51 0.60 0.52 0.38 0.40 0.53 0.40 0.24 0.28 0.18 0.14 0.20 0.08 0.12 0.12 0.11 0.08 0.08 0.10 0.39 0.35 0.34 0.31 0.22 0.09 0.07 0.07 0.03 0.03 0.08 0.12 0.08 0.07 0.07 0.08 0.18 0.44 1.01 1.33 1.02 0.74 0.49 0.40 0.36 0.43 0.56 0.95 1.10 1.08 0.70
1.07 1.17 1.24 1.40 1.44 1.19 1.28 1.09 0.91 0.49 0.34 0.44 0.39 0.54 0.46 0.46 0.42 0.41 0.17 0.19 0.12 0.20 0.17 0.18 0.19 0.25 0.52 0.85 0.74 0.62 0.58 1.10 1.56 0.46 0.65 0.44 0.44 0.35 0.43 0.46 0.61 0.40 0.31 0.46 0.88 0.54 0.15 0.13 0.12 0.11 0.29 0.84 1.15 0.63 0.34 0.29 0.35 0.27 0.10 0.07 0.04 0.05 0.12 0.09 0.04 0.07 0.07 0.08 0.17 0.16 0.41 1.07 1.20 1.31 1.15 0.62 0.41 0.57 0.46 0.63 0.89 0.90 0.49 0.42 0.49
1.10 1.14 1.15 1.12 1.10 1.01 0.98 0.66 0.53 0.48 0.32 0.24 0.31 0.12 0.06 0.04 0.08 0.09 0.29 0.12 0.20 0.31 0.53 1.10 1.27 1.47 1.54 1.54 1.24 1.21 1.20 0.94 0.76 0.22 0.21 0.37 0.60 1.05 1.02 0.85 0.74 0.92 0.69 0.68 0.55 0.46 0.37 0.48 0.58 0.94 1.61 1.34 0.48 0.50 0.37 0.29 0.32 0.08 0.05 0.06 0.03 0.36 0.13 0.09 0.07 0.05 0.07 0.12 0.23 0.41 0.59 1.13 1.10 0.74 0.69 0.34 0.30 0.24 0.30 0.47 0.62 0.44 0.47 0.65 0.40
1.02 0.79 1.09 0.86 0.67 0.61 0.72 0.83 0.83 0.56 0.46 0.17 0.12 0.24 0.09 0.03 0.58 1.06 1.47 1.11 0.67 0.78 0.97 1.09 0.88 0.54 0.44 0.23 0.14 0.17 0.08 0.18 0.35 0.72 1.11 1.04 1.33 1.81 1.51 1.28 0.99 0.61 0.34 0.40 0.44 0.33 0.61 0.84 1.36 1.34 0.95 0.65 0.47 0.63 0.42 0.12 0.07 0.05 0.13 1.17 1.76 0.69 0.19 0.23 0.21 0.20 0.15 0.14 0.33 1.05 1.30 0.76 0.34 0.22 0.24 0.14 0.21 0.19 0.24 0.35 0.43 0.21 0.23 0.28 0.50
1.89 1.16 1.13 1.15 1.01 0.84 0.57 0.97 0.95 0.69 0.64 0.96 0.51 1.34 0.84 0.67 0.51 0.99 0.53 0.71 0.93 0.80 0.19 0.31 0.29 0.48 0.51 0.70 0.63 0.81 0.98 1.28 1.22 1.26 1.12 0.82 1.80 1.88 1.88 1.43 1.08 0.49 0.52 0.44 0.52 0.76 1.26 1.23 1.14 0.93 0.50 0.36 0.34 0.27 0.14 0.09 0.19 0.31 0.94 1.48 0.95 0.74 1.14 1.10 0.99 0.34 0.21 0.16 1.14 1.01 0.27 0.23 0.28 0.29 0.17 0.08 0.29 0.64 0.85 1.13 0.73 0.44 0.41 0.33 0.39
1.22 1.28 0.77 0.91 1.26 1.35 1.24 1.10 0.91 0.66 0.73 0.45 0.61 0.93 0.95 0.53 0.35 0.26 0.28 0.12 0.31 0.40 0.39 0.21 0.52 0.71 0.30 0.20 0.12 0.27 0.35 0.53 0.24 0.24 0.28 0.13 0.14 0.22 0.99 1.66 1.76 1.75 0.96 0.66 0.74 1.02 1.06 1.10 0.96 0.62 0.26 0.35 0.17 0.24 0.28 0.55 0.82 1.01 0.65 0.93 1.12 1.67 2.48 2.21 0.58 0.40 0.27 0.43 0.71 0.30 0.16 0.25 0.36 0.30 0.17 0.48 1.64 1.23 0.97 0.68 0.54 0.40 0.33 0.45 0.47
1.09 0.97 1.66 1.96 1.47 1.42 1.12 1.04 1.50 1.59 1.41 0.96 0.59 0.43 0.74 0.89 0.71 0.35 0.26 0.17 0.27 0.25 0.44 0.99 0.93 0.69 1.24 0.94 0.90 0.85 0.63 0.68 0.55 0.29 0.08 0.12 0.21 0.29 0.18 0.27 0.84 1.01 1.61 2.48 2.14 1.70 1.53 1.25 0.93 0.51 0.35 0.41 0.33 0.45 0.83 1.27 1.24 1.34 1.11 0.58 0.69 1.62 3.14 1.54 1.54 1.22 0.95 1.09 1.21 0.62 0.57 0.42 0.52 0.35 0.30 0.48 1.38 0.83 0.42 0.34 0.28 0.30 0.35 0.37 0.36
1.35 1.74 1.79 2.25 2.05 1.86 2.38 2.60 2.20 2.17 2.23 2.19 1.96 1.49 0.94 0.74 0.79 0.81 0.77 0.64 0.55 0.27 0.44 0.36 0.95 0.87 0.58 1.15 1.52 1.36 1.42 1.21 1.05 0.83 0.48 0.20 0.23 0.34 0.57 0.78 0.88 1.87 2.04 1.68 2.16 2.39 2.15 1.88 1.58 1.30 0.60 0.60 0.52 0.70 1.40 1.26 1.53 0.98 0.83 1.26 0.89 2.00 2.06 1.91 1.58 1.88 1.62 1.48 1.08 1.09 1.03 0.88 0.89 0.75 0.54 1.05 1.07 1.05 0.47 0.38 0.43 0.38 0.43 0.47 0.80
1.04 0.84 1.06 1.14 1.43 1.27 1.14 1.34 1.56 2.20 2.67 2.66 2.18 2.06 1.85 1.73 1.11 0.90 1.37 1.73 1.10 1.00 1.04 1.04 0.99 1.17 1.34 0.76 0.47 0.54 0.70 1.02 1.49 1.50 1.37 1.33 1.11 0.87 1.62 1.57 1.58 1.49 1.99 1.50 1.78 1.63 0.66 0.57 0.56 0.98 1.20 1.51 1.81 1.81 1.90 1.52 0.78 1.02 2.38 1.61 1.17 1.10 0.93 1.29 1.78 3.23 1.95 1.22 1.49 1.69 1.67 1.29 1.36 0.88 0.88 1.14 1.16 1.14 0.84 0.80 0.59 0.44 0.74 0.77 0.61
0.34 0.58 1.10 0.94 1.24 1.27 1.27 1.36 1.79 1.96 1.92 1.64 1.69 2.85 3.16 2.51 2.06 2.01 1.92 1.52 2.05 1.83 1.06 1.02 1.08 1.09 0.99 1.32 1.62 1.44 0.99 0.70 0.67 0.86 1.12 1.50 1.81 1.77 2.44 2.35 2.11 2.14 2.00 0.60 1.00 1.19 1.03 0.80 0.79 1.02 1.35 2.22 1.64 1.08 0.88 0.71 1.06 1.33 1.24 1.88 1.74 1.28 1.65 1.74 3.17 3.11 2.13 2.16 2.24 2.59 3.35 2.54 1.58 1.27 1.25 1.08 0.98 0.86 1.01 1.09 1.20 0.89 0.81 0.74 1.02
0.76 1.16 1.00 0.92 1.45 1.69 2.11 1.97 1.81 2.21 2.21 1.93 1.27 1.09 1.12 2.16 2.63 1.97 1.74 2.01 1.79 1.96 1.81 1.74 1.22 1.43 1.75 1.44 0.79 1.08 1.71 1.30 1.35 1.27 1.86 2.62 2.56 1.81 1.72 2.32 2.17 2.50 2.46 0.98 1.50 1.43 1.23 1.23 0.94 1.09 1.91 1.98 1.36 1.36 1.83 2.17 2.19 2.46 2.83 1.84 2.00 1.46 1.65 2.03 3.84 2.75 2.80 2.85 1.85 2.32 2.60 1.64 1.28 1.14 1.04 0.98 0.81 1.17 0.94 0.70 0.78 0.82 1.25 1.51 0.93
0.26 0.67 1.59 1.34 1.01 1.35 1.58 1.42 1.58 1.50 1.37 1.41 1.23 1.08 0.94 1.02 1.14 1.78 2.60 2.45 2.19 2.12 2.24 2.13 1.84 1.69 1.34 1.18 1.71 1.67 1.09 1.45 1.84 1.73 1.46 1.36 1.62 1.74 1.29 1.17 1.19 1.20 1.93 1.63 2.01 1.63 1.48 1.42 1.28 1.39 1.70 2.21 1.75 1.98 2.96 2.58 2.61 3.14 3.15 2.06 1.93 1.92 1.92 2.61 3.27 2.31 1.86 1.38 1.50 1.37 1.09 0.98 1.40 1.47 2.12 2.55 1.66 1.23 0.95 0.81 1.02 2.12 2.60 1.14 1.11
1.55 1.41 1.34 1.11 1.25 1.30 1.03 0.68 0.68 0.90 0.86 0.82 0.66 0.65 0.72 0.75 0.73 0.83 1.12 1.36 1.96 2.79 2.21 2.12 2.66 1.90 1.52 1.40 1.23 1.60 1.80 1.14 0.97 1.35 2.22 2.56 1.39 0.95 1.31 1.09 0.76 0.95 2.64 1.09 1.09 1.18 1.18 0.91 1.03 1.66 1.26 1.14 1.94 2.01 2.66 2.93 2.87 2.57 2.26 2.04 2.39 2.17 2.76 2.77 1.65 2.06 1.92 1.84 2.37 2.25 1.63 1.12 1.02 1.26 2.08 1.90 1.22 1.36 1.87 1.97 2.97 2.66 1.76 1.58 1.38
1.41 1.32 0.95 0.34 0.36 0.37 0.68 0.56 0.54 0.51 0.54 0.62 0.46 0.48 0.49 0.56 0.54 0.61 0.73 0.93 1.18 1.27 1.64 1.92 2.55 2.90 2.62 2.29 2.06 2.72 3.54 4.36 3.40 1.39 1.96 1.89 2.05 2.01 1.48 1.28 1.69 1.61 2.03 2.42 2.06 1.14 1.22 1.26 0.95 0.84 0.94 1.35 1.64 1.96 2.06 1.90 2.98 2.97 2.04 2.75 2.21 1.55 1.49 1.58 1.83 1.62 1.65 1.63 2.01 2.34 2.30 2.72 2.94 2.48 1.86 0.95 1.11 1.74 1.92 1.94 1.98 1.69 1.84 1.75 1.77
1.73 1.12 0.95 1.23 1.37 1.67 2.08 0.94 0.76 0.70 0.78 0.77 0.79 0.82 0.98 0.54 0.97 1.29 1.34 1.32 1.77 2.02 2.48 2.99 3.58 3.93 3.34 2.47 2.01 1.66 1.45 1.71 1.65 1.32 1.14 1.13 1.19 1.38 1.69 1.65 1.29 1.85 2.24 2.58 2.20 1.41 1.22 1.15 1.17 1.31 1.33 1.81 1.82 1.70 1.56 1.66 2.20 2.94 2.07 2.09 2.10 2.57 3.29 2.29 1.69 1.67 2.33 2.43 2.30 2.00 1.72 2.45 2.88 2.62 2.11 1.93 2.12 1.93 1.68 1.60 1.63 1.66 1.79 1.69 1.53
1.69 2.37 2.58 1.91 1.26 1.68 1.80 0.98 0.96 0.76 0.61 0.66 0.91 0.64 1.28 1.31 1.05 1.29 2.86 2.84 3.75 2.82 1.65 1.69 1.59 1.53 1.35 1.26 1.38 1.53 1.61 1.35 1.43 1.35 1.31 1.45 1.54 1.60 1.52 1.26 1.16 1.02 1.12 2.06 3.75 2.34 1.89 2.12 2.71 2.59 2.22 2.01 1.72 1.66 1.90 3.24 4.72 4.11 3.12 2.52 2.30 1.98 1.99 2.26 2.83 2.55 2.30 2.45 2.32 1.95 2.01 2.51 2.84 2.71 2.65 2.71 2.45 2.18 1.83 1.54 1.41 1.31 1.33 1.68 1.50
0.66 0.95 0.37 1.38 1.81 2.24 1.39 0.91 0.69 0.64 0.91 0.94 1.09 1.31 1.23 1.25 1.14 1.09 0.83 0.67 0.70 0.68 0.95 1.04 1.13 1.06 1.34 1.35 0.94 0.88 0.89 0.92 0.76 1.01 1.21 1.11 1.13 1.13 1.30 1.48 1.27 1.31 1.20 1.37 2.02 1.89 1.52 1.42 1.94 2.00 2.66 1.48 1.34 1.50 1.82 2.24 3.58 3.54 3.86 4.24 3.03 2.38 2.09 2.01 1.92 2.16 2.55 2.76 2.88 2.99 2.77 2.22 1.78 1.57 1.78 1.26 1.40 1.89 1.87 1.66 1.24 1.29 1.07 1.16 1.24
1.63 1.41 1.75 1.87 1.42 1.55 2.12 1.91 1.53 1.26 1.17 1.75 1.26 1.36 1.29 1.80 1.96 1.40 1.11 1.15 0.65 0.56 0.33 0.34 0.30 0.30 0.34 0.34 0.42 0.49 0.52 0.54 0.53 0.51 0.53 0.60 0.51 0.60 0.60 0.66 0.81 1.01 1.20 1.49 1.93 2.10 2.10 3.95 3.68 2.89 1.28 1.55 1.57 1.35 1.21 1.20 1.51 3.22 2.76 3.34 2.81 1.93 1.56 1.56 1.83 1.65 1.78 1.68 1.59 1.37 1.19 1.11 1.09 0.92 1.01 1.07 1.22 1.51 1.75 1.15 1.08 1.09 1.05 1.06 1.31
1.37 1.69 1.36 0.99 0.91 1.62 1.93 2.20 2.31 3.22 3.63 3.24 2.65 2.67 2.34 2.46 2.18 1.46 0.59 0.29 0.33 0.28 0.33 0.45 0.53 0.51 0.46 0.41 0.39 0.40 0.43 0.50 0.60 0.73 0.68 0.70 0.55 0.45 0.40 0.50 0.58 0.59 0.86 1.26 2.26 3.20 4.16 2.49 1.25 1.12 1.19 1.15 1.17 1.15 1.05 1.15 1.24 1.96 2.45 2.06 1.89 1.73 1.62 1.44 1.15 1.89 2.39 1.56 1.21 1.18 1.07 1.14 1.20 1.20 1.28 1.18 1.19 1.18 1.16 1.08 1.11 1.11 1.20 1.56 2.46
0.69 0.94 1.36 1.57 1.39 1.00 1.07 0.92 0.80 0.87 1.00 0.78 1.63 2.21 1.77 1.35 1.70 1.10 0.88 1.04 0.95 1.18 1.13 0.94 0.70 0.56 0.54 0.47 0.54 0.75 0.66 0.73 0.84 0.63 0.84 0.93 0.85 0.84 1.08 1.23 1.47 0.93 0.84 0.81 0.87 1.83 1.90 0.95 1.03 1.53 0.84 0.87 0.77 0.73 0.76 0.79 0.93 1.22 1.96 2.01 1.84 1.81 1.79 1.68 1.47 1.44 1.82 1.13 1.00 1.04 1.16 1.46 1.50 1.34 1.11 1.06 0.97 1.10 1.16 0.95 0.90 1.15 1.45 1.57 1.48
1.86 1.77 1.86 2.27 2.25 2.18 1.94 2.30 2.02 1.46 1.27 1.35 1.51 1.26 1.15 1.52 1.94 1.80 2.00 2.18 2.08 2.23 2.47 2.07 2.02 2.44 2.77 1.67 1.24 1.01 0.91 0.57 0.52 0.57 0.54 0.52 0.43 0.63 0.82 0.94 0.88 1.07 1.23 1.39 1.86 1.20 1.30 1.75 1.86 1.57 2.08 1.65 0.86 0.56 0.79 0.81 1.09 0.88 0.94 0.74 0.88 1.09 1.20 0.98 0.93 0.89 0.88 0.96 0.93 0.94 1.18 0.98 0.79 0.83 0.82 0.92 0.91 0.83 0.89 1.24 1.41 1.29 0.85 0.84 1.06
1.73 1.21 1.15 1.40 1.64 1.57 1.28 1.14 0.91 1.68 1.46 1.16 1.42 1.23 1.42 1.30 0.95 0.92 1.69 1.12 1.16 1.31 1.09 0.76 1.15 1.27 0.49 0.58 0.45 0.67 0.73 0.67 0.70 0.53 0.53 0.41 0.41 0.38 0.90 1.18 1.24 1.13 0.85 0.81 0.78 1.07 1.37 1.55 1.31 1.02 0.53 0.72 0.59 0.48 0.53 0.41 0.26 0.26 0.28 0.41 0.63 0.75 0.79 1.14 0.80 0.73 0.58 0.90 0.67 0.54 0.55 0.65 0.71 0.71 0.69 0.69 0.76 0.82 0.77 1.08 1.40 1.40 1.36 1.29 1.29
0.89 1.08 1.09 0.93 0.95 1.20 1.44 1.29 1.13 1.16 1.89 2.05 2.05 2.28 1.99 1.63 1.47 1.36 1.45 1.72 1.39 1.45 1.05 1.36 1.37 1.60 1.28 1.13 0.92 0.87 1.12 1.12 1.35 1.47 1.43 1.29 1.07 1.20 1.05 0.81 0.54 0.41 0.45 0.46 0.75 0.50 0.49 0.60 0.79 0.95 1.03 0.60 0.40 0.29 0.22 0.20 0.27 0.22 0.40 0.42 0.26 0.22 0.23 0.22 0.23 0.29 0.34 0.45 0.38 0.38 0.35 0.42 0.42 0.38 0.44 0.51 0.59 0.67 0.57 0.58 0.86 0.65 0.54 0.70 0.53
0.47 0.48 0.82 1.18 1.24 1.27 1.05 1.60 1.81 1.81 1.48 2.04 1.64 0.83 0.88 1.43 1.77 1.57 1.60 1.17 1.40 1.63 1.41 1.26 1.04 1.14 1.18 1.18 1.49 1.15 1.06 1.10 0.99 0.77 0.89 1.17 0.88 0.89 0.70 0.59 0.48 0.48 0.56 0.56 0.46 0.36 0.30 0.36 0.39 0.33 0.37 0.41 0.37 0.53 0.43 0.53 0.42 0.41 0.44 0.34 0.35 0.31 0.32 0.33 0.33 0.29 0.30 0.37 0.60 0.46 0.64 1.03 1.69 1.98 2.05 1.90 1.85 1.81 1.33 1.18 0.89 0.83 0.71 0.49 0.34